Change the Weather History Date:

Saturday, February 11, 2012

  Actual Average Record
Temperature  
Mean Temperature 31 °F 47 °F  
Max Temperature 38 °F 58 °F 84 °F (1922)
Min Temperature 24 °F 37 °F 13 °F (1981)
Degree Days  
Heating Degree Days 34 18  
Month to date heating degree days 174 207  
Since 1 July heating degree days 1550 1929  
Cooling Degree Days 0 0  
Month to date cooling degree days 0 0  
Year to date cooling degree days 0 1  
Moisture  
Dew Point 16 °F    
Average Humidity 51    
Maximum Humidity 69    
Minimum Humidity 32    
Precipitation  
Precipitation 0.00 in 0.14 in 3.13 in (1965)
Month to date precipitation 1.17 1.42  
Year to date precipitation 3.79 4.82  
Snow  
Snow 0.00 in - - ()
Month to date snowfall 0.0  
Since 1 July snowfall 0.0  
Snow Depth 0.00 in    
Sea Level Pressure  
Sea Level Pressure 30.52 in    
Wind  
Wind Speed 7 mph (North)    
Max Wind Speed 18 mph    
Max Gust Speed 25 mph    
Visibility 10 miles    
Events      
T = Trace of Precipitation, MM = Missing Value Source: NWS Daily Summary

Daily Weather History Graph

Daily Weather History Graph

Search for Another Location

Airport or City:

Trip Planner

Search our weather history database for the weather conditions in past years. The results will help you decide how hot, cold, wet, or windy it might be!

Date:

Astronomy

Feb. 11, 2012 Rise Set
Actual Time 7:04 AM CST 5:56 PM CST
Civil Twilight 6:38 AM CST 6:22 PM CST
Nautical Twilight 6:09 AM CST 6:51 PM CST
Astronomical Twilight 5:40 AM CST 7:20 PM CST
Moon 10:26 PM CST (2/11) 9:03 AM CST (2/11)
Length of Visible Light 11h 43m
Length of Day
10h 52m
Waning Gibbous, 82% of the Moon is Illuminated
Feb 11
Waning Gibbous
Feb 14
Last Quarter
Feb 21
New
Feb 29
First Quarter
Mar 8
Full

Hourly Weather History & Observations

Time (CST) Temp. Windchill Dew Point Humidity Pressure Visibility Wind Dir Wind Speed Gust Speed Precip Events Conditions
12:53 AM 32.0 °F 28.7 °F 23.0 °F 69% 30.35 in 10.0 mi NW 3.5 mph - N/A   Clear
1:53 AM 32.0 °F 27.5 °F 23.0 °F 69% 30.37 in 10.0 mi WNW 4.6 mph - N/A   Clear
2:53 AM 30.9 °F 25.2 °F 21.9 °F 69% 30.38 in 10.0 mi NNW 5.8 mph - N/A   Clear
3:53 AM 30.9 °F 24.3 °F 21.9 °F 69% 30.39 in 10.0 mi NW 6.9 mph - N/A   Clear
4:53 AM 30.0 °F 23.2 °F 19.9 °F 66% 30.39 in 10.0 mi NNW 6.9 mph - N/A   Clear
5:53 AM 28.9 °F 21.1 °F 19.0 °F 67% 30.42 in 10.0 mi NNW 8.1 mph - N/A   Clear
6:53 AM 28.9 °F 21.9 °F 19.0 °F 67% 30.47 in 10.0 mi NW 6.9 mph - N/A   Mostly Cloudy
7:53 AM 30.0 °F 22.4 °F 17.1 °F 59% 30.56 in 10.0 mi WNW 8.1 mph - N/A   Mostly Cloudy
8:53 AM 30.0 °F 23.2 °F 16.0 °F 56% 30.56 in 10.0 mi Variable 6.9 mph 18.4 mph N/A   Mostly Cloudy
9:53 AM 32.0 °F 22.5 °F 14.0 °F 48% 30.58 in 10.0 mi NNW 12.7 mph 19.6 mph N/A   Overcast
10:53 AM 30.9 °F 20.2 °F 14.0 °F 50% 30.60 in 10.0 mi North 15.0 mph 23.0 mph N/A   Overcast
11:53 AM 32.0 °F 22.1 °F 12.9 °F 45% 30.58 in 10.0 mi North 13.8 mph 21.9 mph N/A   Overcast
12:53 PM 33.1 °F 24.4 °F 14.0 °F 46% 30.57 in 10.0 mi North 11.5 mph - N/A   Overcast
1:53 PM 35.1 °F 26.9 °F 10.9 °F 37% 30.53 in 10.0 mi NE 11.5 mph 24.2 mph N/A   Overcast
2:53 PM 35.1 °F 26.4 °F 12.0 °F 39% 30.51 in 10.0 mi NNE 12.7 mph 19.6 mph N/A   Clear
3:53 PM 36.0 °F 27.5 °F 12.0 °F 37% 30.54 in 10.0 mi North 12.7 mph - N/A   Clear
4:53 PM 37.0 °F 31.6 °F 10.0 °F 33% 30.56 in 10.0 mi NNE 6.9 mph - N/A   Clear
5:53 PM 34.0 °F 28.8 °F 12.9 °F 42% 30.57 in 10.0 mi North 5.8 mph - N/A   Clear
6:53 PM 32.0 °F 26.4 °F 14.0 °F 48% 30.56 in 10.0 mi NNE 5.8 mph - N/A   Clear
7:53 PM 30.9 °F 26.2 °F 12.9 °F 47% 30.58 in 10.0 mi NNE 4.6 mph - N/A   Clear
8:53 PM 30.0 °F 26.5 °F 12.9 °F 49% 30.60 in 10.0 mi NNE 3.5 mph - N/A   Clear
9:53 PM 30.0 °F - 12.0 °F 47% 30.61 in 10.0 mi Calm Calm - N/A   Clear
10:53 PM 28.0 °F 24.2 °F 14.0 °F 56% 30.61 in 10.0 mi NE 3.5 mph - N/A   Clear
11:53 PM 25.0 °F - 16.0 °F 69% 30.61 in 10.0 mi Calm Calm - N/A   Clear